Track GLOBALSTAR M040 now! 10-day predictions GLOBALSTAR M040 is classified as:
1 25622U 99004B 22183.55144384 -.00000052 00000-0 29021-3 0 9994 2 25622 51.9916 106.2697 0000477 92.0348 78.9285 12.61922933 78816